EW5205 Weather Reports


Display with metric or nautical units.
time (UTC)temp
F
wind
direction
speed
MPH
gust
MPH
rain 1hr
in
rain 24hr
in
rain mn
in
humidity
%
barometer
mb
20260507101507 48 74 12.0 17.0 0.00 0.00 0.00 60 1020.8
20260507100006 48 88 15.0 22.0 0.00 0.00 0.00 59 1020.8
20260507094503 48 82 16.0 20.0 0.00 0.00 0.00 59 1020.7
20260507093003 49 93 17.0 23.0 0.00 0.00 0.00 58 1020.5
20260507091601 49 86 15.0 22.0 0.00 0.00 0.00 58 1020.5
20260507091500 49 88 16.0 22.0 0.00 0.00 0.00 59 1020.5
20260507084557 46 24 3.0 8.0 0.00 0.00 0.00 61 1021.1
20260507083054 47 41 6.0 10.0 0.00 0.00 0.00 60 1020.9
20260507081554 48 69 11.0 16.0 0.00 0.00 0.00 59 1020.9
20260507080052 49 83 12.0 19.0 0.00 0.00 0.00 57 1020.9
20260507074543 49 89 17.0 20.0 0.00 0.00 0.00 57 1020.8
20260507073040 50 86 15.0 21.0 0.00 0.00 0.00 56 1020.8
20260507071537 51 60 12.0 17.0 0.00 0.00 0.00 55 1020.9
20260507070039 51 83 12.0 18.0 0.00 0.00 0.00 55 1020.9
20260507064546 51 64 7.0 16.0 0.00 0.00 0.00 53 1020.6
20260507063028 53 88 13.0 17.0 0.00 0.00 0.00 52 1020.3
20260507061523 54 60 11.0 20.0 0.00 0.00 0.00 50 1020.5
20260507060019 54 88 16.0 21.0 0.00 0.00 0.00 50 1020.2
20260507054519 54 93 9.0 16.0 0.00 0.00 0.00 48 1020.0
20260507053017 54 81 11.0 15.0 0.00 0.00 0.00 49 1020.1
20260507051517 54 88 6.0 9.0 0.00 0.00 0.00 48 1019.9
20260507050117 55 124 6.0 9.0 0.00 0.00 0.00 47 1019.7
20260507044513 57 36 4.0 7.0 0.00 0.00 0.00 38 1019.6
20260507043011 59 45 4.0 9.0 0.00 0.00 0.00 34 1019.2
20260507041520 61 5 9.0 12.0 0.00 0.00 0.00 31 1019.1
20260507040007 63 354 9.0 15.0 0.00 0.00 0.00 28 1018.9
20260507034505 64 356 11.0 18.0 0.00 0.00 0.00 24 1018.4
20260507033004 64 291 4.0 14.0 0.00 0.00 0.00 21 1018.2
20260507031503 63 225 4.0 10.0 0.00 0.00 0.00 16 1017.5
20260507030001 62 191 6.0 9.0 0.00 0.00 0.00 17 1017.1
20260507024600 62 193 4.0 8.0 0.00 0.00 0.00 17 1016.8
20260507023100 62 190 3.0 4.0 0.00 0.00 0.00 18 1016.7
20260507021600 62 193 2.0 4.0 0.00 0.00 0.00 18 1016.4
20260507020118 64 219 2.0 5.0 0.00 0.00 0.00 17 1016.1
20260507014601 66 229 8.0 10.0 0.00 0.00 0.00 15 1015.8
20260507013057 67 237 7.0 15.0 0.00 0.00 0.00 14 1015.4
20260507011557 68 240 7.0 14.0 0.00 0.00 0.00 13 1015.2
20260507010110 69 214 10.0 17.0 0.00 0.00 0.00 13 1015.0
20260507004555 70 211 6.0 13.0 0.00 0.00 0.00 13 1015.0
20260507003055 70 252 12.0 14.0 0.00 0.00 0.00 12 1014.8
20260507001557 71 222 10.0 18.0 0.00 0.00 0.00 12 1014.7
20260507000052 71 235 14.0 18.0 0.00 0.00 0.00 12 1014.5
20260506234558 71 216 14.0 18.0 0.00 0.00 0.00 13 1014.6
20260506233035 71 243 8.0 17.0 0.00 0.00 0.00 13 1014.5
20260506231538 71 216 9.0 17.0 0.00 0.00 0.00 13 1014.4
20260506230034 71 232 11.0 18.0 0.00 0.00 0.00 13 1014.5
20260506224536 71 257 12.0 18.0 0.00 0.00 0.00 13 1014.5
20260506223023 71 256 15.0 22.0 0.00 0.00 0.00 14 1014.5
20260506221636 71 237 15.0 20.0 0.00 0.00 0.00 13 1014.7
20260506214537 71 287 12.0 17.0 0.00 0.00 0.00 14 1014.9
20260506213132 71 216 13.0 18.0 0.00 0.00 0.00 14 1014.9
20260506211558 70 259 14.0 21.0 0.00 0.00 0.00 14 1015.3
20260506204540 70 231 16.0 21.0 0.00 0.00 0.00 14 1015.3
20260506203133 68 220 8.0 20.0 0.00 0.00 0.00 15 1015.6
20260506201554 68 284 11.0 21.0 0.00 0.00 0.00 14 1015.8
20260506194600 67 221 9.0 19.0 0.00 0.00 0.00 16 1015.8
20260506193025 67 242 11.0 18.0 0.00 0.00 0.00 17 1016.1
20260506191632 66 278 6.0 17.0 0.00 0.00 0.00 17 1016.3
20260506184557 66 203 10.0 19.0 0.00 0.00 0.00 19 1016.7
20260506183013 65 216 6.0 17.0 0.00 0.00 0.00 19 1016.7
20260506181607 64 231 9.0 16.0 0.00 0.00 0.00 20 1016.8
20260506174537 63 190 11.0 18.0 0.00 0.00 0.00 22 1017.1
20260506173133 63 240 12.0 18.0 0.00 0.00 0.00 23 1017.3
20260506171609 62 150 8.0 16.0 0.00 0.00 0.00 25 1017.2
20260506170004 62 232 7.0 14.0 0.00 0.00 0.00 28 1017.1
20260506164507 62 247 9.0 25.0 0.00 0.00 0.00 29 1017.1
20260506163004 60 231 5.0 12.0 0.00 0.00 0.00 30 1017.1
20260506161600 60 216 8.0 15.0 0.00 0.00 0.00 32 1017.1
20260506160108 59 254 11.0 21.0 0.00 0.00 0.00 32 1016.7
20260506154554 57 243 10.0 14.0 0.00 0.00 0.00 34 1017.1
20260506153053 59 240 10.0 16.0 0.00 0.00 0.00 33 1017.0
20260506151549 58 223 7.0 11.0 0.00 0.00 0.00 36 1017.1
20260506150052 57 259 5.0 10.0 0.00 0.00 0.00 41 1017.3
20260506144553 57 254 4.0 7.0 0.00 0.00 0.00 44 1017.2
20260506143037 57 233 0.0 0.0 0.00 0.00 0.00 47 1017.4
20260506141535 54 40 0.0 0.0 0.00 0.00 0.00 51 1017.4
20260506140036 53 13 0.0 0.0 0.00 0.00 0.00 56 1017.4
20260506134533 52 57 0.0 4.0 0.00 0.00 0.00 56 1017.4
20260506133034 50 27 0.0 0.0 0.00 0.00 0.00 60 1017.2
20260506131537 48 315 0.0 0.0 0.00 0.00 0.00 63 1017.0
20260506130033 45 86 0.0 0.0 0.00 0.00 0.00 68 1016.8
20260506124532 43 98 0.0 0.0 0.00 0.00 0.00 68 1016.7
20260506123026 41 20 0.0 0.0 0.00 0.00 0.00 68 1016.6
20260506121522 43 133 0.0 0.0 0.00 0.00 0.00 68 1016.3
20260506120021 43 153 0.0 0.0 0.00 0.00 0.00 68 1016.1
20260506114531 43 152 0.0 0.0 0.00 0.00 0.00 68 1016.0
20260506113013 46 146 0.0 0.0 0.00 0.00 0.00 65 1016.1
20260506111508 47 206 0.0 0.0 0.00 0.00 0.00 62 1016.0
20260506110007 49 239 0.0 0.0 0.00 0.00 0.00 61 1015.9
20260506104504 50 239 0.0 0.0 0.00 0.00 0.00 59 1015.7
20260506103002 50 268 0.0 0.0 0.00 0.00 0.00 59 1015.7